Regional Weather Roundup
Issued by NWS

Home | Current Version | Previous Version | Graphics & Text | Print | Product List | Glossary Off
Versions: 1 2 3 4 5 6 7 8 9 10 11 12 13 14 15 16 17 18 19 20 21 22 23 24 25 26 27 28 29 30 31 32 33 34 35 36 37 38 39 40 41 42 43 44 45 46 47 48 49 50

000
ASUS43 KMKX 190800
RWRWI

WISCONSIN REGIONAL WEATHER ROUNDUP
NATIONAL WEATHER SERVICE MILWAUKEE/SULLIVAN WI
200 AM CST SUN FEB 19 2017

NOTE: "FAIR" INDICATES FEW OR NO CLOUDS BELOW 12,000 FEET WITH NO
SIGNIFICANT WEATHER AND/OR OBSTRUCTIONS TO VISIBILITY.

WIZ001-002-006>008-014>016-023>028-190900-
NORTHWEST WISCONSIN

CITY           SKY/WX    TMP DP  RH WIND       PRES   REMARKS
SUPERIOR ARPT  CLOUDY    35  30  83 CALM      29.87R
ASHLAND        CLEAR     36  28  73 N3        29.87R
HAYWARD        CLOUDY    32  28  85 N3        29.87S
SIREN          CLEAR     32  31  95 CALM      29.88R
CUMBERLAND     CLEAR     32  30  93 S3        29.87R
RICE LAKE      CLEAR     33  31  93 CALM      29.89R
CHETEK         CLEAR     32  31  96 CALM      29.87S
LADYSMITH      CLOUDY    35  31  87 CALM      29.88S
EAU CLAIRE     NOT AVBL
MENOMONIE      CLEAR     33  31  93 CALM      29.88R
NEW RICHMOND   CLEAR     32  30  90 CALM      29.88R
OSCEOLA        CLEAR     32  32 100 CALM      29.91R
$$

WIZ003>005-009-010-017-018-190900-
NORTH CENTRAL WISCONSIN

CITY           SKY/WX    TMP DP  RH WIND       PRES   REMARKS
MANITOWISH WTR CLOUDY    37  30  74 W6        29.85R WCI  33
ARBOR VITAE    MOCLDY    42  32  69 W3        29.85R
WOODRUFF       MOCLDY    42  32  69 W3        29.85R
RHINELANDER    PTCLDY    43  32  65 W9        29.85R
EAGLE RIVER    PTCLDY    39  28  62 W7        29.83R WCI  34
LAND O LAKES   PTCLDY    39  27  62 W5        29.86R
PHILLIPS       CLEAR     33  31  93 CALM      29.86R
TOMAHAWK       MOCLDY    42  32  67 NW5       29.85S
MEDFORD        PTCLDY    39  32  77 W6        29.86S WCI  35
MERRILL        NOT AVBL
$$

WIZ029-030-035-036-043>047-190900-
CENTRAL WISCONSIN

CITY           SKY/WX    TMP DP  RH WIND       PRES   REMARKS
WAUSAU         PTCLDY    39  32  76 NW3       29.85R
MOSINEE        CLOUDY    39  34  81 W6        29.87R WCI  35
MARSHFIELD     CLOUDY    36  31  82 NW6       29.86R WCI  31
STEVENS POINT  CLOUDY    36  31  81 CALM      29.87R
WAUPACA        CLOUDY    45  32  61 CALM      29.87R
WAUTOMA        CLOUDY    36  31  82 CALM      29.88R
WISC RAPIDS    MOCLDY    34  30  85 CALM      29.88R
CAMP DOUGLAS   NOT AVBL
$$

WIZ011>013-019>022-031-037>040-048>050-190900-
NORTHEAST WISCONSIN

CITY           SKY/WX    TMP DP  RH WIND       PRES   REMARKS
ANTIGO         CLOUDY    36  30  79 CALM      29.84R
SHAWANO        CLOUDY    44  32  64 W3        29.85R
OCONTO         MOCLDY    33  28  81 W6        29.82R WCI  28
STURGEON BAY   MOCLDY    42  31  64 W9        29.83R
GREEN BAY      CLOUDY    40  33  76 W8        29.85R WCI  34
MANITOWOC      NOT AVBL
APPLETON       PTCLDY    36  28  75 W12       29.84R WCI  27
CLINTONVILLE   CLOUDY    39  32  75 CALM      29.85R
OSHKOSH        CLOUDY    41  30  65 W5        29.86R
$$

WIZ032>034-041-042-053>061-190900-
SOUTHWEST WISCONSIN

CITY           SKY/WX    TMP DP  RH WIND       PRES   REMARKS
LA CROSSE      CLEAR     35  31  85 SE5       29.89S WCI  31
SPARTA         CLEAR     27  25  95 CALM      29.90S
VIROQUA        CLEAR     42  34  73 CALM      29.89S
BOSCOBEL       CLEAR     28  26  92 CALM      29.91S FOG
PRAIRIE DU CHI CLEAR     30  29  94 CALM      29.91R
PLATTEVILLE    CLOUDY    37  36  99 CALM      29.90R
$$

WIZ056-057-062-063-064-067-068-190900-
SOUTH CENTRAL WISCONSIN

CITY           SKY/WX    TMP DP  RH WIND       PRES   REMARKS
REEDSBURG      CLOUDY    31  30  97 CALM      29.89S
BARABOO/DELLS  CLOUDY    32  29  90 S3        29.87S
LONE ROCK      NOT AVBL
MINERAL POINT  CLOUDY    45  34  65 N3        29.89S
MADISON        CLEAR     30  29  96 CALM      29.89R
MIDDLETON      CLEAR     33  32  99 CALM      29.90R
WATERTOWN      CLEAR     28  27  97 CALM      29.88R
MONROE         CLOUDY    46  32  57 N5        29.88R
JANESVILLE     CLOUDY    32  32 100 CALM      29.88S
$$

WIZ051-052-058>065-066-070>072-190900-
SOUTHEAST WISCONSIN

CITY           SKY/WX    TMP DP  RH WIND       PRES   REMARKS
MILWAUKEE      CLOUDY    38  29  70 CALM      29.88R
WAUKESHA         N/A     34  30  86 CALM      29.89R
MILWAUKEE/TIMM PTCLDY    39  32  75 W3        29.88R
RACINE         PTCLDY    45  35  68 W6        29.89R
KENOSHA        CLOUDY    40  36  86 NW5       29.88R
FOND DU LAC    PTCLDY    34  27  75 CALM      29.87R
SHEBOYGAN      MOCLDY    39  30  70 SW6       29.85R WCI  35
WEST BEND      PTCLDY    41  30  65 W6        29.86R
JUNEAU         CLEAR     38  30  72 SW5       29.88R WCI  34
$$

LSZ147-162-190900-
LAKE SUPERIOR

STATION/POSITION TIME  TEMP    WIND        PRES    WAVE
                       AIR SEA DIR/SP/G            HT/PER
                 (UTC) (F)     (DEG/KT/KT) (MB)    (FT/S)
DEVILS ISLAND    0700   40     270/ 15/ 16 1011.0R
PORT WING        0740   37     200/  1/  3 1011.9R
SAXON HARBOR     0730   35     210/  5/  7 1011.5R
$$

LMZ867-665-643>646-190900-
LAKE MICHIGAN

STATION/POSITION TIME  TEMP    WIND        PRES    WAVE
                       AIR SEA DIR/SP/G            HT/PER
                 (UTC) (F)     (DEG/KT/KT) (MB)    (FT/S)
CHAMBERS ISLAND  0740   37     180/  5/  7 1009.1R
NORTHPORT PIER   0740   45     260/  2/  5 1009.1R
SISTER BAY       0650   45     280/ 11/ 12   N/A
ALGOMA LAKESHORE 0540          310/ 11/ 16   N/A
KEWAUNEE LAKESHO 0730   45     290/  4/  7 1009.0R
SHEBOYGAN LAKESH 0700   48     270/  8/  9 1010.3R
PORT WASHINGTON  0740   46     280/  4/  6 1011.9R
MILWAUKEE LAKESH 0730   48     290/  7/  9   N/A
KENOSHA   LAKESH 0700   50     290/ 10/ 12 1011.5
$$

TC  - TEMPERATURE IN CELSIUS
VSB - VISIBILITY IN STATUTE MILES
WCI - WIND CHILL INDEX
HX  - HEAT INDEX





USA.gov is the U.S. government's official web portal to all federal, state and local government web resources and services.